Location: Foots Cray
(51.4000°N, 0.1167°E)
Time: 22:43:05
(UTC+00:00)

Cosmos 1777 Rocket - Pass Details

Date: 15 May 2026
Orbit: 754 x 771 km, 74.0° (Epoch: 6 June)

Event Time Altitude Azimuth Distance (km) Brightness Sun altitude
Rises 21:31:57 0° 333° (NNW) 3,244 9.2 -12.8°
Reaches altitude 10° 21:34:20 10° 332° (NNW) 2,311 8.0 -13.1°
Maximum altitude 21:39:33 70° 249° (WSW) 811 4.1 -13.5°
Enters shadow 21:43:21 18° 169° (S) 1,774 5.3 -13.8°
